Location: *
(50.5492°N, 7.7469°E)
Time: 23:22:37
(UTC+00:00)

STARLINK-34 - Pass Details

Date: 21 October 2019
Orbit: 548 x 551 km, 53.0° (Epoch: 16 November)

Event Time Altitude Azimuth Distance (km) Brightness Sun altitude
Rises 17:39:21 0° 274° (W) 2,719 9.2 -12.4°
Reaches altitude 10° 17:41:36 10° 278° (W) 1,826 7.7 -12.7°
Maximum altitude 17:45:43 60° 359° (N) 632 3.9 -13.4°
Enters shadow 17:48:14 22° 74° (ENE) 1,227 4.8 -13.8°
